Regional Weather Roundup
Issued by NWS Burlington, VT

Home | Current Version | Previous Version | Text Only | Print | Product List | Glossary On
Versions: 1 2 3 4 5 6 7 8 9 10 11 12 13 14 15 16 17 18 19 20 21 22 23 24 25 26 27 28 29 30 31 32 33 34 35 36 37 38 39 40 41 42 43 44 45 46 47 48 49 50
000
ASUS41 KBTV 070030
RWRBTV
VERMONT REGIONAL WEATHER ROUNDUP
NATIONAL WEATHER SERVICE BURLINGTON VT
800 PM EDT MON JUL 06 2015

NOTE: "FAIR" INDICATES FEW OR NO CLOUDS BELOW 12,000 FEET WITH NO
SIGNIFICANT WEATHER AND/OR OBSTRUCTIONS TO VISIBILITY.

* THESE REPORTS ARE NOT UNDER NWS QUALITY CONTROL AND/OR DO NOT
  REPORT WEATHER SUCH AS PRECIPITATION AND FOG.

VTZ001>019-070100-
_____VERMONT_____


CITY           SKY/WX    TMP DP  RH WIND       PRES   REMARKS
BURLINGTON     PTCLDY    78  59  51 S7        30.04S
6HR MIN TEMP:  78; 6HR MAX TEMP:  84;

MONTPELIER     CLEAR     72  56  57 SW3       30.13S
6HR MIN TEMP:  72; 6HR MAX TEMP:  81;

MORRISVILLE    CLEAR     76  56  49 S3        30.08S
6HR MIN TEMP:  76; 6HR MAX TEMP:  84;

ST. JOHNSBURY*   N/A     77  56  48 MISG      30.06S
6HR MIN TEMP:  77; 6HR MAX TEMP:  84;

LYNDONVILLE*   FAIR      72  55  54 SE3       30.11S
6HR MIN TEMP:  73; 6HR MAX TEMP:  80;

MIDDLEBURY*    FAIR      73  60  63 SE3       30.06F
6HR MIN TEMP:  75; 6HR MAX TEMP:  82;

RUTLAND*       CLEAR     72  57  60 SE8       30.10S
6HR MIN TEMP:  73; 6HR MAX TEMP:  79;

SPRINGFIELD    CLEAR     75  61  61 NW3       30.10R
6HR MIN TEMP:  75; 6HR MAX TEMP:  84;

HIGHGATE*      FAIR      73  65  74 CALM      30.04S
6HR MIN TEMP:  74; 6HR MAX TEMP:  82;

NEWPORT*       FAIR      72  60  65 CALM      30.09R
6HR MIN TEMP:  73; 6HR MAX TEMP:  80;

BENNINGTON     CLEAR     74  65  73 CALM      30.11R
6HR MIN TEMP:  74; 6HR MAX TEMP:  83;

GALLUP MILLS*    N/A      0 N/A N/A MISG        N/A
MT. MANSFIELD*   N/A     61 N/A N/A S9          N/A

_____LAKE CHAMPLAIN_____


CITY           SKY/WX    TMP DP  RH WIND       PRES   REMARKS

$$

NYZ007-026>031-035-052-083-070100-
_____NORTHERN NEW YORK_____


CITY           SKY/WX    TMP DP  RH WIND       PRES   REMARKS
PLATTSBURGH    CLEAR     76  61  59 S5        30.03R
6HR MIN TEMP:  76; 6HR MAX TEMP:  80;

SARANAC LAKE   CLEAR     74  52  46 SW3       30.07S
6HR MIN TEMP:  74; 6HR MAX TEMP:  80;

MASSENA        CLEAR     76  64  66 CALM      30.02S
6HR MIN TEMP:  76; 6HR MAX TEMP:  84;

OGDENSBURG*    CLEAR     75  68  78 CALM      30.01S
POTSDAM*       CLEAR     73  66  78 SE3       30.02S
STARK FALLS*     N/A     75 N/A N/A SE3         N/A
WATERTOWN      PTCLDY    79  62  56 CALM      30.01S
6HR MIN TEMP:  79; 6HR MAX TEMP:  85;

FT DRUM        PTCLDY    79  63  57 S5        30.02S
6HR MIN TEMP:  79; 6HR MAX TEMP:  85; 6HR PCP: TRACE;

ALBANY         PTCLDY    81  65  58 S8        30.08S
6HR MIN TEMP:  80; 6HR MAX TEMP:  85;

GLENS FALLS    PTCLDY    76  64  66 S5        30.07S
6HR MIN TEMP:  76; 6HR MAX TEMP:  83;


$$
NHZ002-005-011-070100-
_____NEW HAMPSHIRE_____


CITY           SKY/WX    TMP DP  RH WIND       PRES   REMARKS
LEBANON        CLEAR     73  63  70 S6        30.08R
6HR MIN TEMP:  73; 6HR MAX TEMP:  85;

KEENE          CLEAR     73  63  68 S3        30.10F
6HR MIN TEMP:  75; 6HR MAX TEMP:  84;

MT WASHINGTON  MOCLDY    52  50  93 S18         N/A
6HR MIN TEMP:  51; 6HR MAX TEMP:  59;

PLYMOUTH       FAIR      71  67  90 CALM      30.09R
6HR MIN TEMP:  72; 6HR MAX TEMP:  83;

WHITEFIELD     CLEAR     74  61  63 CALM      30.09F
6HR MIN TEMP:  74; 6HR MAX TEMP:  83;


$$

_____REGIONAL QUEBEC LOCATIONS_____


CITY           SKY/WX    TMP DP  RH WIND       PRES   REMARKS
MONTREAL       MOCLDY    79  61  53 SE9       30.02S
QUEBEC CITY    MOCLDY    75  63  64 SW5       30.04R
SHERBROOKE     MOCLDY    73  66  78 CALM      30.06S

_____REGIONAL ONTARIO LOCATIONS_____


CITY           SKY/WX    TMP DP  RH WIND       PRES   REMARKS
OTTAWA         MOCLDY    75  66  73 SE5       30.01S

______KEY______
VSB  - VISIBILITY IN MILES
WCI  - WIND CHILL INDEX
HX   - HEAT INDEX
$$
NNNN


USA.gov is the U.S. government's official web portal to all federal, state and local government web resources and services.